Regional Weather Roundup
Issued by NWS

Home | Current Version | Previous Version | Text Only | Print | Product List | Glossary On
Versions: 1 2 3 4 5 6 7 8 9 10 11 12 13 14 15 16 17 18 19 20 21 22 23 24 25 26 27 28 29 30 31 32 33 34 35 36 37 38 39 40 41 42 43 44 45 46 47 48 49 50
000
ASUS43 KDMX 211806
RWRIA

WEATHER ROUNDUP FOR IOWA
NATIONAL WEATHER SERVICE DES MOINES IA
100 PM CDT THU SEP 21 2017

NOTE: "FAIR" INDICATES FEW OR NO CLOUDS BELOW 12,000 FEET WITH NO
SIGNIFICANT WEATHER AND/OR OBSTRUCTIONS TO VISIBILITY.

* - THESE STATIONS ARE NOT NWS STATIONS...THUS NOT UNDER NWS
QUALITY CONTROL.  THEY ALSO DO NOT REPORT WEATHER SUCH
AS PRECIPITATION OR FOG.

IAZ001>003-012>014-020>022-031>034-043>046-211900-
   NORTHWEST IOWA

CITY           SKY/WX    TMP DP  RH WIND       PRES   REMARKS
CARROLL *      PTSUNNY   82  70  65 S23G36    29.86S HX  86
CHEROKEE *     PTSUNNY   84  75  74 S15G21    29.81F HX  91
DENISON *      CLOUDY    81  72  74 SE17G26   29.85S HX  84
LE MARS *      MOSUNNY   84  73  70 S18G25    29.77F HX  91
ORANGE CITY *  MOSUNNY   84  75  74 S17G25    29.79F HX  92
SHELDON *      SUNNY     84  72  65 SE16G25   29.78F HX  89
SIOUX CITY     MOSUNNY   84  73  69 S20G29    29.77F HX  90
6HR MIN TEMP:  56; 6HR MAX TEMP:  84;

SPENCER        SUNNY     80  69  69 SE15      29.83F HX  83
6HR MIN TEMP:  52; 6HR MAX TEMP:  80;

STORM LAKE *   MOSUNNY   82  73  74 S17G26    29.84S HX  88
$$

IAZ055>058-069>071-079>083-090>094-211900-
   SOUTHWEST IOWA

CITY           SKY/WX    TMP DP  RH WIND       PRES   REMARKS
ATLANTIC *     CLOUDY    79  70  73 SE18G29   29.86F HX  81
AUDUBON *      CLOUDY    79  72  78 SE12G22   29.88F HX  82
CLARINDA *     MOSUNNY   82  75  78 SE14      29.88F HX  89
COUNCIL BLFS * CLOUDY    86  75  70 SE17G29   29.82F HX  95
CRESTON *      MOSUNNY   81  70  69 SE23G31   29.91F HX  84
HARLAN  *      CLOUDY    81  73  78 SE17G25   29.88S HX  85
LAMONI         SUNNY     81  71  71 SE12G24   29.92F HX  85
6HR MIN TEMP:  69; 6HR MAX TEMP:  81; 6HR PCP: TRACE;

RED OAK *      CLOUDY    84  73  70 SE16G24   29.85F HX  91
SHENANDOAH *   PTSUNNY   88  73  62 SE14      29.84F HX  96
$$

IAZ047>049-059>061-072>074-084-211900-
   CENTRAL IOWA

CITY           SKY/WX    TMP DP  RH WIND       PRES   REMARKS
AMES           SUNNY     84  69  60 S24G36    29.90F HX  88
6HR MIN TEMP:  63; 6HR MAX TEMP:  85;

ANKENY *       MOSUNNY   82  68  61 SE14G24   29.91F HX  85
BOONE *        MOSUNNY   84  68  58 S22       29.89F HX  87
CHARITON *     SUNNY     81  72  74 S22G29    29.93F HX  84
DES MOINES     MOSUNNY   83  68  60 SE17G26   29.89F HX  86
6HR MIN TEMP:  68; 6HR MAX TEMP:  83; 6HR PCP: TRACE;

GRINNELL*      SUNNY     85  65  52 S20G29    29.95F HX  86
KNOXVILLE *    SUNNY     84  68  58 S20G29    29.92F HX  87
MARSHALLTOWN   SUNNY     86  66  51 S20G26    29.91F HX  88
6HR MIN TEMP:  64; 6HR MAX TEMP:  86;

NEWTON *       SUNNY     86  66  51 S18G30    29.93S HX  88
PELLA *        SUNNY     85  67  54 S17G24    29.95F HX  87
PERRY *          N/A     83  69  61 SE16G25   29.89F HX  87
$$

IAZ004>006-015-016-023>025-035-036-211900-
   NORTH CENTRAL IOWA

CITY           SKY/WX    TMP DP  RH WIND       PRES   REMARKS
ALGONA *       CLOUDY    79  72  78 S10G21    29.88F HX  82
CLARION *      PTSUNNY   84  73  70 S23G35    29.89F HX  91
ESTHERVILLE    MOSUNNY   75  68  78 SE18G24   29.86F
6HR MIN TEMP:  49; 6HR MAX TEMP:  78;

FORT DODGE *   PTSUNNY   82  71  69 S20G28    29.87F HX  86
MASON CITY     MOSUNNY   82  68  62 S13       29.92F HX  85
6HR MIN TEMP:  58; 6HR MAX TEMP:  82;

FOREST CITY *    N/A     79  68  69 S17       29.91F HX  81
WEBSTER CITY * PTSUNNY   84  68  58 S21G29    29.86F HX  87
IOWA FALLS *     N/A     84  69  59 S20       29.92F HX  88
$$

IAZ007>011-017>019-026>030-037>042-050>054-066-211900-
   NORTHEAST IOWA

CITY           SKY/WX    TMP DP  RH WIND       PRES   REMARKS
CEDAR RAPIDS   MOSUNNY   91  59  33 S17G25    29.91F HX  90
6HR MIN TEMP:  68; 6HR MAX TEMP:  91;

CHARLES CITY * SUNNY     82  66  57 S12G20    29.93F HX  85
CLINTON *      CLOUDY   N/A N/A N/A E13       29.97F
DECORAH *      SUNNY     82  64  54 S12G18    29.95F HX  84
DUBUQUE        CLOUDY    78  64  61 SE9       29.99F HX  80
6HR MIN TEMP:  65; 6HR MAX TEMP:  78;

MONTICELLO *   PTSUNNY   90  59  35 SW9G20    29.94F HX  89
OELWEIN *      SUNNY     86  61  42 S20G26    29.94F HX  86
WATERLOO       SUNNY     85  61  44 S16G25    29.91F HX  85
6HR MIN TEMP:  62; 6HR MAX TEMP:  85;

$$

IAZ064-065-067-068-078-211900-
   EAST CENTRAL IOWA

CITY           SKY/WX    TMP DP  RH WIND       PRES   REMARKS
DAVENPORT      CLOUDY    77  62  59 E17G24    29.98R
6HR MIN TEMP:  71; 6HR MAX TEMP:  82; 6HR PCP:  0.08;

IOWA CITY      PTSUNNY   89  61  38 S9        29.92F HX  89
6HR MIN TEMP:  72; 6HR MAX TEMP:  89;

MT. PLEASANT * CLOUDY    78  67  70 S14       29.95S
MUSCATINE *    CLOUDY    81  64  57 SE7       29.92S HX  82
QUAD CITIES    CLOUDY    81  63  54 E12       29.95R HX  82
6HR MIN TEMP:  70; 6HR MAX TEMP:  81; 6HR PCP:  0.09;

$$

IAZ062-063-075>077-085>089-095>099-211900-
   SOUTHEAST IOWA

CITY           SKY/WX    TMP DP  RH WIND       PRES   REMARKS
BURLINGTON     CLOUDY    76  67  73 S12       29.96F
6HR MIN TEMP:  69; 6HR MAX TEMP:  76; 6HR PCP:  0.03;

FAIRFIELD *    CLOUDY    79  66  65 S13G20    29.95S HX  81
FORT MADISON * CLOUDY    79  66  65 SE7       29.97F HX  81
KEOKUK *       CLOUDY    79  64  61 S7        29.97F HX  81
OSKALOOSA *      N/A     85  67  54 S23G29    29.94F HX  87
CENTERVILLE *    N/A     82  72  69 SE13G23   29.98F HX  87
OTTUMWA        CLOUDY    83  68  60 S20G26    29.95F HX  86
6HR MIN TEMP:  69; 6HR MAX TEMP:  83; 6HR PCP:  0.31;

WASHINGTON *   CLOUDY    84  68  58 S13G20    29.94S HX  87
$$

ABBREVIATIONS USED IN REMARKS
   TC - TEMPERATURES IN CELSIUS
  WCI - WIND CHILL INDEX
   HX - HEAT INDEX
  VSB - VISIBILITY
$$




USA.gov is the U.S. government's official web portal to all federal, state and local government web resources and services.